Location: Tauranga
(37.6860°S, 176.1670°E)
Time: 00:50:30
(UTC+13:00)

Atlas Centaur 2 - Pass Details

Date: 24 January 2019
Orbit: 459 x 1311 km, 30.4° (Epoch: 19 February)

Event Time Altitude Azimuth Distance (km) Brightness Sun altitude
Rises 22:21:23 0° 286° (WNW) 4,200 6.2 -18.2°
Reaches altitude 10° 22:24:20 10° 290° (WNW) 3,288 5.6 -18.7°
Maximum altitude 22:32:30 52° 3° (N) 1,590 3.3 -19.8°
Enters shadow 22:36:36 30° 62° (ENE) 2,141 3.7 -20.4°
